La Paz/El Alto International Airport

Airport
ICAO code: 
SLLP
IATA Code: 
LPB
Summary
ICAO Region: 
CARSAM
Territory: 
Location: 
El Alto, La Paz
Serving: 
La Paz
Elevation: 
13325 ft
Coordinates: 
Aerial View: 
16° 30' 48" S, 68° 11' 32" W
Airport RE: 
Hot and High Operations
Metar
Observation
SLLP 170000Z VRB02KT 9999 FEW013 FEW017CB BKN200 07/04 Q1036
Station
La Paz / Alto
Date/Time
2022-01-17 00:00:00
Wind speed
02 kts
Lowest cloud amount
few clouds
Temperature
7°C
Dew point
4°C
Humidity
81%
QNH
1036 hPa
Weather condition
n/a

International airport serving La Paz, Bolivia.

Climatology

Sub-tropical Highland climate (Köppen climate classification Cwb) - In the tropics, a Subtropical Highland climate tends to feature spring-like weather year-round. Average temperatures here remain relatively constant throughout the year but with a significant diurnal variation.

Runways

Designator Length Width Surface Rops
10L/28R 2050 91 GRE No/No
10/28 4000 46 CON Yes/Yes
Airport map: 
Aerial View: 

SKYbrary Partners:

Safety knowledge contributed by: